Time,TemperatureF,DewpointF,PressureIn,WindDirection,WindDirectionDegrees,WindSpeedMPH,WindSpeedGustMPH,Humidity,HourlyPrecipIn,Conditions,Clouds,dailyrainin,SoftwareType,DateUTC
2013-01-01 00:14:00,26.5,20.0,30.16,WSW,252,1.0,5.0,75,0.00,,,0.00,weatherlink.com 1.10,2013-01-01 07:14:00,
2013-01-01 00:30:00,25.6,19.0,30.16,WSW,237,3.0,5.0,77,0.00,,,0.00,weatherlink.com 1.10,2013-01-01 07:30:00,
2013-01-01 00:45:00,25.4,19.0,30.16,WSW,239,2.0,5.0,77,0.00,,,0.00,weatherlink.com 1.10,2013-01-01 07:45:00,
2013-01-01 01:00:00,25.2,19.0,30.17,WSW,237,3.0,5.0,78,0.00,,,0.00,weatherlink.com 1.10,2013-01-01 08:00:00,
2013-01-01 01:15:00,25.5,20.0,30.18,WSW,238,2.0,5.0,78,0.00,,,0.00,weatherlink.com 1.10,2013-01-01 08:15:00,
2013-01-01 01:30:00,24.6,18.0,30.18,WSW,238,0.0,3.0,77,0.00,,,0.00,weatherlink.com 1.10,2013-01-01 08:30:00,
2013-01-01 01:45:00,24.5,19.0,30.18,WSW,254,0.0,5.0,79,0.00,,,0.00,weatherlink.com 1.10,2013-01-01 08:45:00,
2013-01-01 02:00:00,26.1,20.0,30.18,WNW,292,2.0,8.0,76,0.00,,,0.00,weatherlink.com 1.10,2013-01-01 09:00:00,
2013-01-01 02:15:00,26.7,19.0,30.18,WNW,294,5.0,12.0,74,0.00,,,0.00,weatherlink.com 1.10,2013-01-01 09:15:00,
2013-01-01 02:30:00,26.6,19.0,30.20,WNW,284,6.0,13.0,74,0.00,,,0.00,weatherlink.com 1.10,2013-01-01 09:30:00,
2013-01-01 02:45:00,25.9,19.0,30.20,WNW,286,3.0,9.0,74,0.00,,,0.00,weatherlink.com 1.10,2013-01-01 09:45:00,
2013-01-01 03:00:00,24.4,18.0,30.20,West,262,3.0,7.0,75,0.00,,,0.00,weatherlink.com 1.10,2013-01-01 10:00:00,
2013-01-01 03:15:00,23.1,17.0,30.21,West,259,3.0,6.0,78,0.00,,,0.00,weatherlink.com 1.10,2013-01-01 10:15:00,
2013-01-01 03:30:00,24.0,18.0,30.21,West,269,6.0,9.0,78,0.00,,,0.00,weatherlink.com 1.10,2013-01-01 10:30:00,
2013-01-01 03:45:00,23.5,17.0,30.22,West,265,2.0,5.0,76,0.00,,,0.00,weatherlink.com 1.10,2013-01-01 10:45:00,
2013-01-01 04:00:00,23.0,17.0,30.22,West,265,1.0,2.0,76,0.00,,,0.00,weatherlink.com 1.10,2013-01-01 11:00:00,
2013-01-01 04:15:00,20.9,15.0,30.22,West,263,1.0,5.0,78,0.00,,,0.00,weatherlink.com 1.10,2013-01-01 11:15:00,
2013-01-01 04:30:00,23.0,17.0,30.23,WSW,256,3.0,6.0,76,0.00,,,0.00,weatherlink.com 1.10,2013-01-01 11:30:00,
2013-01-01 04:45:00,22.9,16.0,30.23,WSW,254,4.0,5.0,75,0.00,,,0.00,weatherlink.com 1.10,2013-01-01 11:45:00,
2013-01-01 05:00:00,21.9,15.0,30.23,SW,219,2.0,8.0,74,0.00,,,0.00,weatherlink.com 1.10,2013-01-01 12:00:00,
2013-01-01 05:15:00,20.4,14.0,30.24,WSW,239,4.0,6.0,77,0.00,,,0.00,weatherlink.com 1.10,2013-01-01 12:15:00,
2013-01-01 05:30:00,19.8,14.0,30.25,SSW,207,4.0,6.0,78,0.00,,,0.00,weatherlink.com 1.10,2013-01-01 12:30:00,
2013-01-01 05:45:00,19.7,14.0,30.26,South,174,6.0,6.0,79,0.00,,,0.00,weatherlink.com 1.10,2013-01-01 12:45:00,
2013-01-01 06:00:00,20.6,15.0,30.26,South,186,3.0,8.0,79,0.00,,,0.00,weatherlink.com 1.10,2013-01-01 13:00:00,
2013-01-01 06:15:00,20.0,14.0,30.27,SSW,192,0.0,5.0,77,0.00,,,0.00,weatherlink.com 1.10,2013-01-01 13:15:00,
2013-01-01 06:30:00,20.4,15.0,30.28,SSW,192,2.0,3.0,79,0.00,,,0.00,weatherlink.com 1.10,2013-01-01 13:30:00,
2013-01-01 06:46:00,20.3,14.0,30.28,South,190,3.0,5.0,77,0.00,,,0.00,weatherlink.com 1.10,2013-01-01 13:46:00,
2013-01-01 07:01:00,20.2,15.0,30.29,South,190,2.0,2.0,79,0.00,,,0.00,weatherlink.com 1.10,2013-01-01 14:01:00,
2013-01-01 07:16:00,21.0,15.0,30.29,South,190,0.0,3.0,78,0.00,,,0.00,weatherlink.com 1.10,2013-01-01 14:16:00,
2013-01-01 07:31:00,20.4,14.0,30.30,South,190,0.0,3.0,77,0.00,,,0.00,weatherlink.com 1.10,2013-01-01 14:31:00,
2013-01-01 07:46:00,19.7,14.0,30.30,SSW,194,2.0,5.0,79,0.00,,,0.00,weatherlink.com 1.10,2013-01-01 14:46:00,
2013-01-01 08:01:00,18.2,13.0,30.30,SSW,196,0.0,3.0,80,0.00,,,0.00,weatherlink.com 1.10,2013-01-01 15:01:00,
2013-01-01 08:16:00,20.0,15.0,30.31,SSW,196,0.0,2.0,81,0.00,,,0.00,weatherlink.com 1.10,2013-01-01 15:16:00,
2013-01-01 08:31:00,22.6,16.0,30.32,SSW,196,0.0,3.0,77,0.00,,,0.00,weatherlink.com 1.10,2013-01-01 15:31:00,
2013-01-01 08:46:00,24.5,17.0,30.33,SSW,196,0.0,3.0,72,0.00,,,0.00,weatherlink.com 1.10,2013-01-01 15:46:00,
2013-01-01 09:01:00,25.1,17.0,30.34,South,182,3.0,5.0,71,0.00,,,0.00,weatherlink.com 1.10,2013-01-01 16:01:00,
2013-01-01 09:16:00,26.2,18.0,30.35,South,178,5.0,5.0,71,0.00,,,0.00,weatherlink.com 1.10,2013-01-01 16:16:00,
2013-01-01 09:31:00,27.9,19.0,30.35,South,184,1.0,6.0,68,0.00,,,0.00,weatherlink.com 1.10,2013-01-01 16:31:00,
2013-01-01 09:46:00,28.7,18.0,30.35,NNW,343,5.0,14.0,65,0.00,,,0.00,weatherlink.com 1.10,2013-01-01 16:46:00,
2013-01-01 10:01:00,29.2,17.0,30.35,WNW,298,9.0,14.0,61,0.00,,,0.00,weatherlink.com 1.10,2013-01-01 17:01:00,
2013-01-01 10:16:00,29.1,17.0,30.35,NNW,330,9.0,13.0,60,0.00,,,0.00,weatherlink.com 1.10,2013-01-01 17:16:00,
2013-01-01 10:31:00,29.8,17.0,30.36,NNW,335,6.0,11.0,60,0.00,,,0.00,weatherlink.com 1.10,2013-01-01 17:31:00,
2013-01-01 10:46:00,30.5,18.0,30.35,West,280,6.0,10.0,59,0.00,,,0.00,weatherlink.com 1.10,2013-01-01 17:46:00,
2013-01-01 11:01:00,30.9,17.0,30.35,WNW,300,6.0,12.0,56,0.00,,,0.00,weatherlink.com 1.10,2013-01-01 18:01:00,
2013-01-01 11:16:00,31.0,16.0,30.34,WNW,301,15.0,15.0,55,0.00,,,0.00,weatherlink.com 1.10,2013-01-01 18:16:00,
2013-01-01 11:31:00,31.0,16.0,30.32,North,5,7.0,15.0,55,0.00,,,0.00,weatherlink.com 1.10,2013-01-01 18:31:00,
2013-01-01 11:46:00,31.4,17.0,30.30,NNW,333,7.0,15.0,55,0.00,,,0.00,weatherlink.com 1.10,2013-01-01 18:46:00,
2013-01-01 12:01:00,31.5,16.0,30.29,NNW,334,10.0,13.0,54,0.00,,,0.00,weatherlink.com 1.10,2013-01-01 19:01:00,
2013-01-01 12:16:00,31.9,16.0,30.27,WNW,290,9.0,13.0,52,0.00,,,0.00,weatherlink.com 1.10,2013-01-01 19:16:00,
2013-01-01 12:31:00,32.1,16.0,30.27,WNW,288,5.0,15.0,52,0.00,,,0.00,weatherlink.com 1.10,2013-01-01 19:31:00,
2013-01-01 12:46:00,32.4,16.0,30.27,WNW,302,9.0,13.0,51,0.00,,,0.00,weatherlink.com 1.10,2013-01-01 19:46:00,
2013-01-01 13:01:00,32.6,15.0,30.26,West,280,9.0,17.0,49,0.00,,,0.00,weatherlink.com 1.10,2013-01-01 20:01:00,
2013-01-01 13:16:00,33.3,16.0,30.27,West,265,10.0,17.0,49,0.00,,,0.00,weatherlink.com 1.10,2013-01-01 20:16:00,
2013-01-01 13:31:00,33.5,16.0,30.27,NW,306,6.0,17.0,48,0.00,,,0.00,weatherlink.com 1.10,2013-01-01 20:31:00,
2013-01-01 13:46:00,33.9,15.0,30.27,NW,315,11.0,16.0,47,0.00,,,0.00,weatherlink.com 1.10,2013-01-01 20:46:00,
2013-01-01 14:01:00,33.7,15.0,30.27,WNW,283,8.0,18.0,46,0.00,,,0.00,weatherlink.com 1.10,2013-01-01 21:01:00,
2013-01-01 14:16:00,33.7,14.0,30.28,WNW,300,11.0,20.0,45,0.00,,,0.00,weatherlink.com 1.10,2013-01-01 21:16:00,
2013-01-01 14:31:00,33.8,14.0,30.27,WNW,298,17.0,18.0,45,0.00,,,0.00,weatherlink.com 1.10,2013-01-01 21:31:00,
2013-01-01 14:46:00,34.1,16.0,30.28,NNW,338,8.0,18.0,47,0.00,,,0.00,weatherlink.com 1.10,2013-01-01 21:46:00,
2013-01-01 15:01:00,33.7,13.0,30.28,NW,323,17.0,23.0,43,0.00,,,0.00,weatherlink.com 1.10,2013-01-01 22:01:00,
2013-01-01 15:16:00,33.4,13.0,30.28,NW,317,13.0,22.0,44,0.00,,,0.00,weatherlink.com 1.10,2013-01-01 22:16:00,
2013-01-01 15:31:00,33.1,13.0,30.29,NW,320,17.0,23.0,43,0.00,,,0.00,weatherlink.com 1.10,2013-01-01 22:31:00,
2013-01-01 15:46:00,32.8,13.0,30.30,NW,324,12.0,23.0,45,0.00,,,0.00,weatherlink.com 1.10,2013-01-01 22:46:00,
2013-01-01 16:01:00,32.9,14.0,30.30,WNW,301,9.0,20.0,46,0.00,,,0.00,weatherlink.com 1.10,2013-01-01 23:01:00,
2013-01-01 16:16:00,32.5,13.0,30.30,WNW,295,14.0,21.0,45,0.00,,,0.00,weatherlink.com 1.10,2013-01-01 23:16:00,
2013-01-01 16:31:00,32.3,13.0,30.30,WNW,294,14.0,22.0,45,0.00,,,0.00,weatherlink.com 1.10,2013-01-01 23:31:00,
2013-01-01 16:46:00,31.5,13.0,30.32,NW,305,8.0,17.0,46,0.00,,,0.00,weatherlink.com 1.10,2013-01-01 23:46:00,
2013-01-01 17:01:00,30.9,13.0,30.33,WNW,300,7.0,14.0,48,0.00,,,0.00,weatherlink.com 1.10,2013-01-02 00:01:00,
2013-01-01 17:16:00,30.3,13.0,30.32,West,278,5.0,13.0,48,0.00,,,0.00,weatherlink.com 1.10,2013-01-02 00:16:00,
2013-01-01 17:31:00,29.4,12.0,30.34,West,266,5.0,10.0,49,0.00,,,0.00,weatherlink.com 1.10,2013-01-02 00:31:00,
2013-01-01 17:46:00,29.0,12.0,30.34,WNW,284,3.0,8.0,50,0.00,,,0.00,weatherlink.com 1.10,2013-01-02 00:46:00,
2013-01-01 18:01:00,27.9,12.0,30.33,SW,234,4.0,7.0,52,0.00,,,0.00,weatherlink.com 1.10,2013-01-02 01:01:00,
2013-01-01 18:17:00,28.8,13.0,30.33,WNW,297,6.0,15.0,52,0.00,,,0.00,weatherlink.com 1.10,2013-01-02 01:17:00,
2013-01-01 18:32:00,28.9,12.0,30.34,WNW,284,8.0,14.0,50,0.00,,,0.00,weatherlink.com 1.10,2013-01-02 01:32:00,
2013-01-01 18:47:00,28.4,12.0,30.35,SW,233,1.0,9.0,51,0.00,,,0.00,weatherlink.com 1.10,2013-01-02 01:47:00,
2013-01-01 19:02:00,28.1,13.0,30.37,NE,35,3.0,4.0,53,0.00,,,0.00,weatherlink.com 1.10,2013-01-02 02:02:00,
2013-01-01 19:17:00,27.8,14.0,30.35,NW,304,17.0,20.0,56,0.00,,,0.00,weatherlink.com 1.10,2013-01-02 02:17:00,
2013-01-01 19:32:00,27.6,14.0,30.36,WNW,291,12.0,19.0,56,0.00,,,0.00,weatherlink.com 1.10,2013-01-02 02:32:00,
2013-01-01 19:47:00,27.4,13.0,30.36,NW,323,11.0,21.0,56,0.00,,,0.00,weatherlink.com 1.10,2013-01-02 02:47:00,
2013-01-01 20:02:00,27.1,14.0,30.36,NW,317,18.0,21.0,57,0.00,,,0.00,weatherlink.com 1.10,2013-01-02 03:02:00,
2013-01-01 20:17:00,27.0,13.0,30.36,WNW,288,18.0,23.0,57,0.00,,,0.00,weatherlink.com 1.10,2013-01-02 03:17:00,
2013-01-01 20:32:00,26.5,14.0,30.38,WNW,291,5.0,15.0,59,0.00,,,0.00,weatherlink.com 1.10,2013-01-02 03:32:00,
2013-01-01 20:47:00,26.3,14.0,30.37,WNW,291,1.0,6.0,59,0.00,,,0.00,weatherlink.com 1.10,2013-01-02 03:47:00,
2013-01-01 21:02:00,25.5,14.0,30.37,SSE,159,8.0,16.0,61,0.00,,,0.00,weatherlink.com 1.10,2013-01-02 04:02:00,
2013-01-01 21:17:00,26.7,14.0,30.39,NNW,343,6.0,13.0,59,0.00,,,0.00,weatherlink.com 1.10,2013-01-02 04:17:00,
2013-01-01 21:32:00,27.1,14.0,30.39,NNW,337,2.0,15.0,57,0.00,,,0.00,weatherlink.com 1.10,2013-01-02 04:32:00,
2013-01-01 21:47:00,26.6,14.0,30.40,ENE,70,2.0,9.0,59,0.00,,,0.00,weatherlink.com 1.10,2013-01-02 04:47:00,
2013-01-01 22:02:00,25.6,13.0,30.41,NNE,32,5.0,6.0,60,0.00,,,0.00,weatherlink.com 1.10,2013-01-02 05:02:00,
2013-01-01 22:17:00,23.4,12.0,30.40,NNE,25,3.0,8.0,63,0.00,,,0.00,weatherlink.com 1.10,2013-01-02 05:17:00,
2013-01-01 22:32:00,23.0,13.0,30.41,NNE,25,4.0,7.0,65,0.00,,,0.00,weatherlink.com 1.10,2013-01-02 05:32:00,
2013-01-01 22:47:00,22.6,13.0,30.41,NNE,22,1.0,6.0,66,0.00,,,0.00,weatherlink.com 1.10,2013-01-02 05:47:00,
2013-01-01 23:02:00,22.7,13.0,30.41,WNW,301,3.0,9.0,67,0.00,,,0.00,weatherlink.com 1.10,2013-01-02 06:02:00,
2013-01-01 23:17:00,22.4,13.0,30.42,SSW,194,1.0,6.0,67,0.00,,,0.00,weatherlink.com 1.10,2013-01-02 06:17:00,
2013-01-01 23:32:00,22.3,13.0,30.41,WNW,291,3.0,9.0,67,0.00,,,0.00,weatherlink.com 1.10,2013-01-02 06:32:00,
2013-01-01 23:47:00,21.7,13.0,30.41,NW,316,3.0,12.0,68,0.00,,,0.00,weatherlink.com 1.10,2013-01-02 06:47:00,